Columbia, MO

2:26 PM CDT on October 17, 2017 (GMT -0500)
Columbia Regional

Weather History for KCOU - September, 2014

Change the Weather History Date:

Monday, September 8, 2014

  Actual Average Record
Temperature  
Mean Temperature 69 °F 71 °F  
Max Temperature 82 °F 82 °F 103 °F (1947)
Min Temperature 56 °F 60 °F 43 °F (1986)
Degree Days  
Heating Degree Days 0 1  
Month to date heating degree days 0 2  
Since 1 July heating degree days 0 4  
Cooling Degree Days 4 7  
Month to date cooling degree days 61 61  
Year to date cooling degree days 1171 1144  
Growing Degree Days 18 (Base 50)    
Moisture  
Dew Point 60 °F    
Average Humidity 78    
Maximum Humidity 93    
Minimum Humidity 62    
Precipitation  
Precipitation 0.00 in 0.12 in 2.85 in (2016)
Month to date precipitation 5.52 1.04  
Year to date precipitation 29.81 30.79  
Snow  
Snow 0.00 in 0.00 in 0.00 in (2015)
Month to date snowfall 0.0 0.0  
Since 1 July snowfall 0.0 0.0  
Since 1 September snowfall 0.0 0.0  
Snow Depth 0.00 in    
Sea Level Pressure  
Sea Level Pressure 30.03 in    
Wind  
Wind Speed 8 mph (SE)    
Max Wind Speed 15 mph    
Max Gust Speed 20 mph    
Visibility 10 miles    
Events      
T = Trace of Precipitation, MM = Missing Value Source: NWS Daily Summary

Daily Weather History Graph

Daily Weather History Graph

Search for Another Location

Airport or City:

Trip Planner

Search our weather history database for the weather conditions in past years. The results will help you decide how hot, cold, wet, or windy it might be!

Date:

Astronomy

Sep. 08, 2014 Rise Set
Actual Time 6:44 AM CDT 7:28 PM CDT
Civil Twilight 6:17 AM CDT 7:55 PM CDT
Nautical Twilight 5:45 AM CDT 8:26 PM CDT
Astronomical Twilight 5:12 AM CDT 8:59 PM CDT
Moon 7:09 PM CDT (9/8) 6:09 AM CDT (9/8)
Length of Visible Light 13h 37m
Length of Day
12h 44m
Full, 100% of the Moon is Illuminated
Sep 8
Full
Sep 8
Full
Sep 15
Last Quarter
Sep 24
New
Oct 1
First Quarter

Hourly Weather History & Observations

Time (CDT) Temp. Heat Index Dew Point Humidity Pressure Visibility Wind Dir Wind Speed Gust Speed Precip Events Conditions
12:54 AM 60.1 °F - 51.1 °F 72% 30.10 in 10.0 mi ESE 5.8 mph - N/A   Clear
1:54 AM 60.1 °F - 51.1 °F 72% 30.10 in 10.0 mi ESE 6.9 mph - N/A   Clear
2:54 AM 59.0 °F - 52.0 °F 78% 30.09 in 10.0 mi ESE 5.8 mph - N/A   Clear
3:54 AM 57.9 °F - 52.0 °F 81% 30.08 in 10.0 mi ESE 6.9 mph - N/A   Clear
4:54 AM 59.0 °F - 53.1 °F 81% 30.08 in 10.0 mi ESE 6.9 mph - N/A   Clear
5:54 AM 57.9 °F - 53.1 °F 84% 30.07 in 10.0 mi ESE 6.9 mph - N/A   Clear
6:54 AM 55.9 °F - 54.0 °F 93% 30.08 in 10.0 mi SE 5.8 mph - N/A   Clear
7:54 AM 59.0 °F - 55.9 °F 90% 30.08 in 10.0 mi SE 6.9 mph - N/A   Clear
8:54 AM 64.9 °F - 59.0 °F 81% 30.08 in 10.0 mi SE 9.2 mph - N/A   Mostly Cloudy
9:54 AM 70.0 °F - 60.1 °F 71% 30.07 in 10.0 mi SSE 12.7 mph - N/A   Clear
10:54 AM 73.9 °F - 61.0 °F 64% 30.07 in 10.0 mi South 10.4 mph - N/A   Clear
11:54 AM 75.9 °F - 62.1 °F 62% 30.05 in 10.0 mi South 10.4 mph - N/A   Mostly Cloudy
12:54 PM 79.0 °F - 64.9 °F 62% 30.02 in 10.0 mi South 11.5 mph - N/A   Mostly Cloudy
1:54 PM 80.1 °F 82.1 °F 66.0 °F 62% 30.00 in 10.0 mi South 9.2 mph - N/A   Scattered Clouds
2:54 PM 80.1 °F 82.1 °F 66.0 °F 62% 29.99 in 10.0 mi South 10.4 mph - N/A   Mostly Cloudy
3:54 PM 80.1 °F 82.1 °F 66.0 °F 62% 29.97 in 10.0 mi South 9.2 mph - N/A   Mostly Cloudy
4:54 PM 81.0 °F 83.0 °F 66.0 °F 60% 29.95 in 10.0 mi South 9.2 mph - N/A   Partly Cloudy
5:54 PM 80.1 °F 82.1 °F 66.0 °F 62% 29.95 in 10.0 mi South 6.9 mph - N/A   Clear
6:54 PM 75.9 °F - 66.9 °F 74% 29.94 in 10.0 mi SE 5.8 mph - N/A   Clear
7:54 PM 75.0 °F - 66.0 °F 73% 29.95 in 10.0 mi ESE 5.8 mph - N/A   Partly Cloudy
8:54 PM 73.9 °F - 66.0 °F 76% 29.97 in 10.0 mi ESE 5.8 mph - N/A   Overcast
9:54 PM 73.0 °F - 66.0 °F 79% 29.97 in 10.0 mi SE 6.9 mph - N/A   Overcast
10:54 PM 71.1 °F - 64.9 °F 81% 29.97 in 10.0 mi SE 5.8 mph - N/A   Partly Cloudy
11:54 PM 71.1 °F - 64.9 °F 81% 29.96 in 10.0 mi SE 5.8 mph - N/A   Mostly Cloudy